Starlink 4290

operational
NORAD ID: 53006 Int'l Des: 2022-076 Owner: SPXS Country: US Constellation: starlink
LEOCIRCULAR

关于 Starlink 4290

正在加载描述...

实时位置

正在加载3D地球...

即将过境

高度历史

Altitude vs Time

uPlot chart will show altitude changes over time

两行轨道根数

1 53006U 22076W 25260.11832147 -.00001278 00000-0 -62206-4 0 9993
2 53006 53.2157 153.3134 0001575 98.5633 261.5538 15.08834375176649
Epoch: Sep 17, 2025 • Age: 15 hours

当前状态

高度 546.3 km
速度 7.59 km/s
星下点 -21.85°S, 79.94°E
发射日期 Jul 7, 2022
运行时间 3.1 years
类型 internet

技术详情

分类 Payload
质量 297.00 kg
干质量 275.00 kg
总质量 297.00 kg
长度 0.20 m
直径 2.80 m
跨度 9.00 m
形状 Box + pan
制造商 SPXS
平台类型 Starlink
阶段状态 In Orbit
所有者/国家 SPXS/US

大型星座

Loading constellations...